| time (UTC) | temp F | wind direction | speed MPH | gust MPH | rain 1hr in | rain 24hr in | rain mn in | humidity % | barometer mb |
| 20260905020732 | 81 | 219 | 1.0 | 5.0 | 0.00 | 0.00 | 0.00 | 88 | 1015.4 |
| 20260905020227 | 81 | 217 | 3.0 | 3.0 | 0.00 | 0.00 | 0.00 | 88 | 1015.6 |
| 20260905015726 | 81 | 238 | 1.0 | 3.0 | 0.00 | 0.00 | 0.00 | 88 | 1015.5 |
| 20260905015221 | 81 | 203 | 2.0 | 5.0 | 0.00 | 0.00 | 0.00 | 88 | 1015.5 |
| 20260905014719 | 81 | 215 | 0.0 | 1.0 | 0.00 | 0.00 | 0.00 | 88 | 1015.5 |
| 20260905014215 | 81 | 218 | 1.0 | 3.0 | 0.00 | 0.00 | 0.00 | 87 | 1015.8 |
| 20260905013711 | 81 | 240 | 3.0 | 3.0 | 0.00 | 0.00 | 0.00 | 87 | 1015.5 |
| 20260905013207 | 81 | 173 | 1.0 | 5.0 | 0.00 | 0.00 | 0.00 | 87 | 1015.6 |
| 20260905012702 | 81 | 225 | 1.0 | 3.0 | 0.00 | 0.00 | 0.00 | 87 | 1015.7 |
| 20260905012158 | 81 | 205 | 1.0 | 3.0 | 0.00 | 0.00 | 0.00 | 87 | 1015.6 |
| 20260905011654 | 81 | 206 | 0.0 | 3.0 | 0.00 | 0.00 | 0.00 | 87 | 1015.6 |
| 20260905011150 | 82 | 213 | 1.0 | 2.0 | 0.00 | 0.00 | 0.00 | 87 | 1015.6 |
| 20260905010644 | 82 | 207 | 2.0 | 2.0 | 0.00 | 0.00 | 0.00 | 87 | 1015.4 |
| 20260905010140 | 82 | 199 | 0.0 | 1.0 | 0.00 | 0.00 | 0.00 | 86 | 1015.6 |
| 20260905005636 | 82 | 199 | 1.0 | 2.0 | 0.00 | 0.00 | 0.00 | 86 | 1015.2 |
| 20260905005131 | 82 | 189 | 1.0 | 2.0 | 0.00 | 0.00 | 0.00 | 86 | 1015.4 |
| 20260905004631 | 82 | 212 | 1.0 | 2.0 | 0.00 | 0.00 | 0.00 | 86 | 1015.3 |
| 20260905004120 | 82 | 227 | 0.0 | 3.0 | 0.00 | 0.00 | 0.00 | 86 | 1015.3 |
| 20260905003616 | 82 | 205 | 1.0 | 1.0 | 0.00 | 0.00 | 0.00 | 86 | 1015.1 |
| 20260905003112 | 82 | 203 | 0.0 | 2.0 | 0.00 | 0.00 | 0.00 | 86 | 1015.0 |
| 20260905002607 | 82 | 199 | 0.0 | 2.0 | 0.00 | 0.00 | 0.00 | 85 | 1015.0 |
| 20260905002102 | 82 | 222 | 3.0 | 3.0 | 0.00 | 0.00 | 0.00 | 85 | 1015.0 |
| 20260905001557 | 83 | 212 | 1.0 | 2.0 | 0.00 | 0.00 | 0.00 | 85 | 1015.1 |
| 20260905001056 | 83 | 235 | 1.0 | 5.0 | 0.00 | 0.00 | 0.00 | 85 | 1015.0 |
| 20260905000551 | 83 | 207 | 0.0 | 2.0 | 0.00 | 0.00 | 0.00 | 85 | 1015.1 |
| 20260905000048 | 83 | 206 | 0.0 | 2.0 | 0.00 | 0.00 | 0.00 | 85 | 1014.9 |
| 20260904235542 | 83 | 207 | 0.0 | 1.0 | 0.00 | 0.00 | 0.00 | 84 | 1014.9 |
| 20260904235036 | 83 | 216 | 1.0 | 3.0 | 0.00 | 0.00 | 0.00 | 84 | 1014.9 |
| 20260904234531 | 83 | 242 | 2.0 | 5.0 | 0.00 | 0.00 | 0.00 | 84 | 1014.8 |
| 20260904234027 | 83 | 207 | 1.0 | 5.0 | 0.00 | 0.00 | 0.00 | 84 | 1015.2 |
| 20260904233521 | 84 | 238 | 1.0 | 2.0 | 0.00 | 0.00 | 0.00 | 84 | 1014.8 |
| 20260904233018 | 84 | 188 | 2.0 | 5.0 | 0.00 | 0.00 | 0.00 | 84 | 1015.1 |
| 20260904232514 | 84 | 207 | 4.0 | 13.0 | 0.00 | 0.00 | 0.00 | 83 | 1014.9 |
| 20260904232011 | 84 | 193 | 3.0 | 10.0 | 0.00 | 0.00 | 0.00 | 83 | 1014.8 |
| 20260904231506 | 84 | 193 | 3.0 | 8.0 | 0.00 | 0.00 | 0.00 | 83 | 1015.0 |
| 20260904231000 | 84 | 189 | 7.0 | 10.0 | 0.00 | 0.00 | 0.00 | 83 | 1014.9 |
| 20260904230459 | 84 | 222 | 5.0 | 6.0 | 0.00 | 0.00 | 0.00 | 83 | 1014.7 |
| 20260904225954 | 84 | 194 | 4.0 | 5.0 | 0.00 | 0.00 | 0.00 | 83 | 1014.9 |
| 20260904225453 | 84 | 229 | 5.0 | 7.0 | 0.00 | 0.00 | 0.00 | 83 | 1014.7 |
| 20260904224953 | 84 | 224 | 4.0 | 9.0 | 0.00 | 0.00 | 0.00 | 82 | 1014.6 |
| 20260904224448 | 84 | 209 | 4.0 | 9.0 | 0.00 | 0.00 | 0.00 | 82 | 1014.6 |
| 20260904223948 | 85 | 173 | 6.0 | 13.0 | 0.00 | 0.00 | 0.00 | 82 | 1014.6 |
| 20260904223447 | 85 | 197 | 6.0 | 8.0 | 0.00 | 0.00 | 0.00 | 82 | 1014.7 |
| 20260904222943 | 85 | 199 | 4.0 | 7.0 | 0.00 | 0.00 | 0.00 | 82 | 1014.6 |
| 20260904222438 | 85 | 194 | 4.0 | 7.0 | 0.00 | 0.00 | 0.00 | 82 | 1014.5 |
| 20260904221938 | 85 | 209 | 5.0 | 9.0 | 0.00 | 0.00 | 0.00 | 81 | 1014.5 |
| 20260904221432 | 85 | 195 | 5.0 | 10.0 | 0.00 | 0.00 | 0.00 | 81 | 1014.6 |
| 20260904220928 | 85 | 200 | 5.0 | 10.0 | 0.00 | 0.00 | 0.00 | 81 | 1014.7 |
| 20260904220428 | 85 | 101 | 3.0 | 10.0 | 0.00 | 0.00 | 0.00 | 81 | 1014.8 |
| 20260904215923 | 85 | 184 | 6.0 | 11.0 | 0.00 | 0.00 | 0.00 | 81 | 1014.6 |
| 20260904215418 | 86 | 138 | 6.0 | 10.0 | 0.00 | 0.00 | 0.00 | 81 | 1014.8 |
| 20260904214914 | 86 | 207 | 6.0 | 8.0 | 0.00 | 0.00 | 0.00 | 81 | 1014.8 |
| 20260904214410 | 86 | 218 | 6.0 | 9.0 | 0.00 | 0.00 | 0.00 | 81 | 1014.8 |
| 20260904213909 | 86 | 213 | 7.0 | 10.0 | 0.00 | 0.00 | 0.00 | 81 | 1015.0 |
| 20260904213403 | 86 | 243 | 3.0 | 13.0 | 0.00 | 0.00 | 0.00 | 81 | 1015.0 |
| 20260904212859 | 86 | 201 | 2.0 | 9.0 | 0.00 | 0.00 | 0.00 | 80 | 1014.8 |
| 20260904212358 | 86 | 206 | 7.0 | 9.0 | 0.00 | 0.00 | 0.00 | 80 | 1014.9 |
| 20260904211855 | 86 | 179 | 3.0 | 5.0 | 0.00 | 0.00 | 0.00 | 80 | 1014.7 |
| 20260904211355 | 86 | 122 | 4.0 | 11.0 | 0.00 | 0.00 | 0.00 | 80 | 1014.8 |
| 20260904210850 | 86 | 161 | 3.0 | 8.0 | 0.00 | 0.00 | 0.00 | 79 | 1014.8 |
| 20260904210349 | 86 | 212 | 3.0 | 7.0 | 0.00 | 0.00 | 0.00 | 79 | 1014.8 |
| 20260904205846 | 87 | 129 | 4.0 | 8.0 | 0.00 | 0.00 | 0.00 | 79 | 1014.7 |
| 20260904205341 | 87 | 206 | 4.0 | 8.0 | 0.00 | 0.00 | 0.00 | 78 | 1015.0 |
| 20260904204838 | 87 | 190 | 5.0 | 10.0 | 0.00 | 0.00 | 0.00 | 78 | 1014.9 |
| 20260904204333 | 87 | 140 | 4.0 | 8.0 | 0.00 | 0.00 | 0.00 | 78 | 1015.1 |
| 20260904203829 | 87 | 204 | 6.0 | 8.0 | 0.00 | 0.00 | 0.00 | 78 | 1015.3 |
| 20260904203326 | 87 | 203 | 4.0 | 6.0 | 0.00 | 0.00 | 0.00 | 78 | 1015.2 |
| 20260904202821 | 87 | 163 | 3.0 | 7.0 | 0.00 | 0.00 | 0.00 | 78 | 1015.3 |
| 20260904202317 | 87 | 213 | 2.0 | 9.0 | 0.00 | 0.00 | 0.00 | 78 | 1015.2 |
| 20260904201813 | 87 | 214 | 4.0 | 8.0 | 0.00 | 0.00 | 0.00 | 78 | 1015.4 |
| 20260904201307 | 87 | 227 | 4.0 | 8.0 | 0.00 | 0.00 | 0.00 | 78 | 1015.3 |
| 20260904200802 | 87 | 199 | 5.0 | 8.0 | 0.00 | 0.00 | 0.00 | 78 | 1015.5 |
| 20260904200256 | 87 | 186 | 5.0 | 13.0 | 0.00 | 0.00 | 0.00 | 78 | 1015.6 |
| 20260904195755 | 87 | 97 | 2.0 | 7.0 | 0.00 | 0.00 | 0.00 | 78 | 1015.6 |
| 20260904195254 | 87 | 211 | 5.0 | 8.0 | 0.00 | 0.00 | 0.00 | 78 | 1015.8 |
| 20260904194749 | 87 | 204 | 3.0 | 5.0 | 0.00 | 0.00 | 0.00 | 78 | 1015.8 |
| 20260904194248 | 87 | 226 | 3.0 | 9.0 | 0.00 | 0.00 | 0.00 | 78 | 1015.8 |
| 20260904193743 | 88 | 210 | 4.0 | 7.0 | 0.00 | 0.00 | 0.00 | 78 | 1015.8 |
| 20260904193239 | 88 | 213 | 4.0 | 7.0 | 0.00 | 0.00 | 0.00 | 78 | 1016.0 |
| 20260904192734 | 88 | 208 | 7.0 | 8.0 | 0.00 | 0.00 | 0.00 | 78 | 1016.1 |
| 20260904192229 | 88 | 153 | 3.0 | 9.0 | 0.00 | 0.00 | 0.00 | 78 | 1015.9 |
| 20260904191726 | 88 | 183 | 3.0 | 7.0 | 0.00 | 0.00 | 0.00 | 77 | 1016.0 |
| 20260904191222 | 88 | 203 | 2.0 | 6.0 | 0.00 | 0.00 | 0.00 | 77 | 1016.0 |
| 20260904190719 | 88 | 203 | 7.0 | 10.0 | 0.00 | 0.00 | 0.00 | 77 | 1015.7 |
| 20260904190214 | 88 | 189 | 5.0 | 7.0 | 0.00 | 0.00 | 0.00 | 77 | 1016.0 |
| 20260904185711 | 88 | 138 | 4.0 | 9.0 | 0.00 | 0.00 | 0.00 | 77 | 1016.0 |
| 20260904185205 | 89 | 207 | 5.0 | 6.0 | 0.00 | 0.00 | 0.00 | 76 | 1016.0 |
| 20260904184703 | 89 | 153 | 3.0 | 8.0 | 0.00 | 0.00 | 0.00 | 76 | 1016.2 |
| 20260904184200 | 89 | 135 | 5.0 | 7.0 | 0.00 | 0.00 | 0.00 | 76 | 1015.9 |
| 20260904183655 | 89 | 194 | 4.0 | 6.0 | 0.00 | 0.00 | 0.00 | 76 | 1015.8 |
| 20260904183155 | 89 | 116 | 4.0 | 6.0 | 0.00 | 0.00 | 0.00 | 76 | 1016.0 |
| 20260904182651 | 89 | 211 | 5.0 | 6.0 | 0.00 | 0.00 | 0.00 | 76 | 1016.3 |
| 20260904182145 | 89 | 229 | 7.0 | 8.0 | 0.00 | 0.00 | 0.00 | 76 | 1016.0 |
| 20260904181641 | 89 | 190 | 1.0 | 7.0 | 0.00 | 0.00 | 0.00 | 76 | 1016.1 |
| 20260904181135 | 89 | 159 | 5.0 | 7.0 | 0.00 | 0.00 | 0.00 | 76 | 1016.2 |
| 20260904180631 | 89 | 217 | 0.0 | 9.0 | 0.00 | 0.00 | 0.00 | 76 | 1016.2 |
| 20260904180121 | 89 | 186 | 3.0 | 8.0 | 0.00 | 0.00 | 0.00 | 76 | 1016.3 |
| 20260904175619 | 89 | 167 | 1.0 | 8.0 | 0.00 | 0.00 | 0.00 | 76 | 1016.4 |
| 20260904175118 | 89 | 92 | 4.0 | 7.0 | 0.00 | 0.00 | 0.00 | 75 | 1016.2 |
| 20260904174613 | 90 | 199 | 3.0 | 7.0 | 0.00 | 0.00 | 0.00 | 76 | 1016.2 |
| 20260904174110 | 89 | 147 | 3.0 | 8.0 | 0.00 | 0.00 | 0.00 | 75 | 1016.4 |
| 20260904173609 | 89 | 217 | 4.0 | 7.0 | 0.00 | 0.00 | 0.00 | 75 | 1016.5 |
| 20260904173105 | 89 | 166 | 5.0 | 8.0 | 0.00 | 0.00 | 0.00 | 75 | 1016.5 |
| 20260904172601 | 89 | 182 | 3.0 | 5.0 | 0.00 | 0.00 | 0.00 | 74 | 1016.5 |
| 20260904172100 | 89 | 188 | 6.0 | 9.0 | 0.00 | 0.00 | 0.00 | 74 | 1016.8 |
| 20260904171555 | 89 | 212 | 5.0 | 8.0 | 0.00 | 0.00 | 0.00 | 75 | 1016.7 |
| 20260904171051 | 89 | 71 | 4.0 | 6.0 | 0.00 | 0.00 | 0.00 | 74 | 1017.1 |
| 20260904170546 | 90 | 209 | 4.0 | 6.0 | 0.00 | 0.00 | 0.00 | 74 | 1016.9 |
| 20260904170043 | 89 | 164 | 6.0 | 10.0 | 0.00 | 0.00 | 0.00 | 74 | 1016.9 |
| 20260904165540 | 90 | 172 | 6.0 | 8.0 | 0.00 | 0.00 | 0.00 | 73 | 1017.0 |
| 20260904165035 | 90 | 322 | 1.0 | 8.0 | 0.00 | 0.00 | 0.00 | 73 | 1017.0 |
| 20260904164530 | 90 | 195 | 7.0 | 13.0 | 0.00 | 0.00 | 0.00 | 72 | 1017.2 |
| 20260904164026 | 90 | 166 | 2.0 | 8.0 | 0.00 | 0.00 | 0.00 | 72 | 1017.1 |
| 20260904163525 | 90 | 187 | 3.0 | 6.0 | 0.00 | 0.00 | 0.00 | 72 | 1017.1 |
| 20260904163021 | 90 | 191 | 5.0 | 8.0 | 0.00 | 0.00 | 0.00 | 72 | 1017.1 |
| 20260904162515 | 90 | 206 | 2.0 | 7.0 | 0.00 | 0.00 | 0.00 | 72 | 1017.2 |
| 20260904162010 | 90 | 125 | 4.0 | 7.0 | 0.00 | 0.00 | 0.00 | 71 | 1017.1 |
| 20260904161505 | 90 | 127 | 5.0 | 9.0 | 0.00 | 0.00 | 0.00 | 71 | 1017.4 |
| 20260904161000 | 90 | 143 | 5.0 | 7.0 | 0.00 | 0.00 | 0.00 | 71 | 1017.3 |
| 20260904160454 | 90 | 157 | 5.0 | 7.0 | 0.00 | 0.00 | 0.00 | 71 | 1017.5 |
| 20260904155950 | 90 | 128 | 4.0 | 6.0 | 0.00 | 0.00 | 0.00 | 71 | 1017.5 |
| 20260904155445 | 90 | 196 | 3.0 | 7.0 | 0.00 | 0.00 | 0.00 | 71 | 1017.5 |
| 20260904154943 | 90 | 179 | 3.0 | 6.0 | 0.00 | 0.00 | 0.00 | 71 | 1017.4 |
| 20260904154438 | 90 | 202 | 2.0 | 5.0 | 0.00 | 0.00 | 0.00 | 72 | 1017.4 |
| 20260904153933 | 90 | 179 | 0.0 | 5.0 | 0.00 | 0.00 | 0.00 | 73 | 1017.5 |
| 20260904153428 | 90 | 211 | 1.0 | 5.0 | 0.00 | 0.00 | 0.00 | 73 | 1017.5 |
| 20260904152925 | 90 | 144 | 1.0 | 5.0 | 0.00 | 0.00 | 0.00 | 73 | 1017.6 |
| 20260904152420 | 90 | 210 | 1.0 | 7.0 | 0.00 | 0.00 | 0.00 | 75 | 1017.7 |
| 20260904151919 | 89 | 111 | 1.0 | 3.0 | 0.00 | 0.00 | 0.00 | 74 | 1017.5 |
| 20260904151414 | 89 | 124 | 4.0 | 7.0 | 0.00 | 0.00 | 0.00 | 75 | 1017.4 |
| 20260904150909 | 89 | 137 | 1.0 | 7.0 | 0.00 | 0.00 | 0.00 | 77 | 1017.4 |
| 20260904150404 | 89 | 172 | 0.0 | 5.0 | 0.00 | 0.00 | 0.00 | 78 | 1017.3 |
| 20260904145902 | 89 | 202 | 0.0 | 5.0 | 0.00 | 0.00 | 0.00 | 79 | 1017.3 |
| 20260904145358 | 88 | 187 | 3.0 | 5.0 | 0.00 | 0.00 | 0.00 | 81 | 1017.4 |
| 20260904144854 | 87 | 154 | 0.0 | 7.0 | 0.00 | 0.00 | 0.00 | 83 | 1017.4 |
| 20260904144350 | 86 | 194 | 1.0 | 5.0 | 0.00 | 0.00 | 0.00 | 87 | 1017.3 |
| 20260904143845 | 86 | 151 | 0.0 | 0.0 | 0.00 | 0.00 | 0.00 | 87 | 1017.2 |
| 20260904143342 | 85 | 155 | 1.0 | 2.0 | 0.00 | 0.00 | 0.00 | 88 | 1017.3 |
| 20260904142837 | 85 | 208 | 1.0 | 2.0 | 0.00 | 0.00 | 0.00 | 89 | 1017.3 |
| 20260904142334 | 84 | 233 | 1.0 | 2.0 | 0.00 | 0.00 | 0.00 | 90 | 1017.2 |
| 20260904141833 | 84 | 215 | 1.0 | 1.0 | 0.00 | 0.00 | 0.00 | 90 | 1017.3 |
| 20260904141328 | 84 | 210 | 1.0 | 1.0 | 0.00 | 0.00 | 0.00 | 90 | 1017.4 |
| 20260904140825 | 84 | 216 | 1.0 | 2.0 | 0.00 | 0.00 | 0.00 | 91 | 1017.3 |
| 20260904140320 | 84 | 209 | 2.0 | 2.0 | 0.00 | 0.00 | 0.00 | 91 | 1017.4 |
| 20260904135819 | 84 | 213 | 4.0 | 5.0 | 0.00 | 0.00 | 0.00 | 91 | 1017.4 |
| 20260904135314 | 84 | 165 | 1.0 | 1.0 | 0.00 | 0.00 | 0.00 | 91 | 1017.3 |
| 20260904134810 | 83 | 174 | 0.0 | 0.0 | 0.00 | 0.00 | 0.00 | 93 | 1017.2 |
| 20260904134309 | 83 | 185 | 0.0 | 0.0 | 0.00 | 0.00 | 0.00 | 93 | 1017.1 |
| 20260904133804 | 83 | 182 | 0.0 | 0.0 | 0.00 | 0.00 | 0.00 | 93 | 1017.2 |
| 20260904133300 | 83 | 183 | 0.0 | 0.0 | 0.00 | 0.00 | 0.00 | 93 | 1017.1 |
| 20260904132800 | 83 | 189 | 0.0 | 2.0 | 0.00 | 0.00 | 0.00 | 93 | 1017.2 |
| 20260904132255 | 82 | 196 | 1.0 | 2.0 | 0.00 | 0.00 | 0.00 | 93 | 1017.2 |
| 20260904131754 | 82 | 167 | 0.0 | 2.0 | 0.00 | 0.00 | 0.00 | 94 | 1017.1 |
| 20260904131250 | 82 | 199 | 2.0 | 3.0 | 0.00 | 0.00 | 0.00 | 94 | 1017.1 |
| 20260904130749 | 82 | 172 | 0.0 | 2.0 | 0.00 | 0.00 | 0.00 | 94 | 1017.0 |
| 20260904130249 | 82 | 166 | 2.0 | 3.0 | 0.00 | 0.00 | 0.00 | 95 | 1017.2 |
| 20260904125745 | 82 | 139 | 0.0 | 0.0 | 0.00 | 0.00 | 0.00 | 95 | 1017.2 |
| 20260904125241 | 81 | 139 | 0.0 | 0.0 | 0.00 | 0.00 | 0.00 | 95 | 1017.2 |
| 20260904124735 | 80 | 140 | 0.0 | 0.0 | 0.00 | 0.00 | 0.00 | 96 | 1017.4 |
| 20260904124231 | 80 | 140 | 0.0 | 0.0 | 0.00 | 0.00 | 0.00 | 95 | 1017.3 |
| 20260904123726 | 80 | 137 | 0.0 | 0.0 | 0.00 | 0.00 | 0.00 | 95 | 1017.3 |
| 20260904123221 | 80 | 131 | 0.0 | 0.0 | 0.00 | 0.00 | 0.00 | 95 | 1017.0 |
| 20260904122716 | 79 | 130 | 0.0 | 0.0 | 0.00 | 0.00 | 0.00 | 95 | 1017.1 |
| 20260904122211 | 79 | 130 | 0.0 | 0.0 | 0.00 | 0.00 | 0.00 | 95 | 1017.2 |
| 20260904121706 | 79 | 129 | 0.0 | 0.0 | 0.00 | 0.00 | 0.00 | 95 | 1017.1 |
| 20260904121201 | 79 | 129 | 0.0 | 0.0 | 0.00 | 0.00 | 0.00 | 95 | 1017.1 |
| 20260904120658 | 79 | 130 | 0.0 | 0.0 | 0.00 | 0.00 | 0.00 | 95 | 1017.2 |
| 20260904120153 | 78 | 130 | 0.0 | 0.0 | 0.00 | 0.00 | 0.00 | 95 | 1017.1 |
| 20260904115648 | 78 | 139 | 0.0 | 0.0 | 0.00 | 0.00 | 0.00 | 95 | 1017.1 |
| 20260904115144 | 78 | 143 | 0.0 | 0.0 | 0.00 | 0.00 | 0.00 | 95 | 1017.0 |
| 20260904114643 | 78 | 144 | 0.0 | 0.0 | 0.00 | 0.00 | 0.00 | 94 | 1016.9 |
| 20260904114143 | 77 | 28 | 0.0 | 0.0 | 0.00 | 0.00 | 0.00 | 94 | 1016.9 |
| 20260904113638 | 77 | 24 | 0.0 | 0.0 | 0.00 | 0.00 | 0.00 | 94 | 1016.8 |
| 20260904113137 | 77 | 23 | 0.0 | 0.0 | 0.00 | 0.00 | 0.00 | 94 | 1016.8 |
| 20260904112633 | 77 | 23 | 0.0 | 0.0 | 0.00 | 0.00 | 0.00 | 94 | 1016.7 |
| 20260904112128 | 77 | 23 | 0.0 | 0.0 | 0.00 | 0.00 | 0.00 | 94 | 1016.6 |
| 20260904111624 | 77 | 27 | 0.0 | 0.0 | 0.00 | 0.00 | 0.00 | 94 | 1016.5 |
| 20260904111119 | 77 | 59 | 0.0 | 1.0 | 0.00 | 0.00 | 0.00 | 94 | 1016.5 |
| 20260904110614 | 77 | 222 | 0.0 | 0.0 | 0.00 | 0.00 | 0.00 | 94 | 1016.3 |
| 20260904110109 | 77 | 222 | 0.0 | 0.0 | 0.00 | 0.00 | 0.00 | 94 | 1016.6 |
| 20260904105608 | 77 | 222 | 0.0 | 0.0 | 0.00 | 0.00 | 0.00 | 94 | 1016.5 |
| 20260904105103 | 77 | 222 | 0.0 | 0.0 | 0.00 | 0.00 | 0.00 | 94 | 1016.3 |
| 20260904104559 | 77 | 221 | 0.0 | 0.0 | 0.00 | 0.00 | 0.00 | 94 | 1016.1 |
| 20260904104054 | 77 | 222 | 0.0 | 0.0 | 0.00 | 0.00 | 0.00 | 94 | 1016.2 |
| 20260904103550 | 77 | 219 | 0.0 | 0.0 | 0.00 | 0.00 | 0.00 | 94 | 1016.1 |
| 20260904103046 | 77 | 226 | 0.0 | 0.0 | 0.00 | 0.00 | 0.00 | 94 | 1016.3 |
| 20260904102542 | 77 | 226 | 0.0 | 0.0 | 0.00 | 0.00 | 0.00 | 94 | 1016.4 |
| 20260904102037 | 77 | 226 | 0.0 | 0.0 | 0.00 | 0.00 | 0.00 | 94 | 1016.3 |
| 20260904101534 | 77 | 227 | 0.0 | 0.0 | 0.00 | 0.00 | 0.00 | 94 | 1016.2 |
| 20260904101029 | 77 | 226 | 0.0 | 0.0 | 0.00 | 0.00 | 0.00 | 94 | 1016.2 |
| 20260904100525 | 77 | 226 | 0.0 | 0.0 | 0.00 | 0.00 | 0.00 | 94 | 1016.2 |
| 20260904100020 | 77 | 226 | 0.0 | 0.0 | 0.00 | 0.00 | 0.00 | 94 | 1016.1 |
| 20260904095514 | 77 | 221 | 0.0 | 0.0 | 0.00 | 0.00 | 0.00 | 94 | 1016.1 |
| 20260904095009 | 77 | 227 | 0.0 | 0.0 | 0.00 | 0.00 | 0.00 | 94 | 1016.0 |
| 20260904094504 | 77 | 226 | 0.0 | 0.0 | 0.00 | 0.00 | 0.00 | 94 | 1016.1 |
| 20260904093959 | 77 | 226 | 0.0 | 0.0 | 0.00 | 0.00 | 0.00 | 94 | 1016.1 |
| 20260904093456 | 77 | 226 | 0.0 | 0.0 | 0.00 | 0.00 | 0.00 | 94 | 1015.7 |
| 20260904092950 | 78 | 226 | 0.0 | 0.0 | 0.00 | 0.00 | 0.00 | 93 | 1015.8 |
| 20260904092447 | 78 | 226 | 0.0 | 0.0 | 0.00 | 0.00 | 0.00 | 93 | 1015.7 |
| 20260904091942 | 78 | 227 | 0.0 | 0.0 | 0.00 | 0.00 | 0.00 | 93 | 1015.9 |
| 20260904091438 | 78 | 227 | 0.0 | 0.0 | 0.00 | 0.00 | 0.00 | 93 | 1015.5 |
| 20260904090932 | 78 | 222 | 0.0 | 0.0 | 0.00 | 0.00 | 0.00 | 93 | 1015.6 |
| 20260904090429 | 78 | 217 | 0.0 | 0.0 | 0.00 | 0.00 | 0.00 | 93 | 1015.6 |
| 20260904085923 | 78 | 221 | 0.0 | 0.0 | 0.00 | 0.00 | 0.00 | 93 | 1015.5 |
| 20260904085419 | 78 | 222 | 0.0 | 0.0 | 0.00 | 0.00 | 0.00 | 93 | 1015.7 |
| 20260904084913 | 78 | 221 | 0.0 | 0.0 | 0.00 | 0.00 | 0.00 | 93 | 1015.5 |
| 20260904084409 | 78 | 228 | 0.0 | 0.0 | 0.00 | 0.00 | 0.00 | 93 | 1015.6 |
| 20260904083859 | 78 | 231 | 0.0 | 0.0 | 0.00 | 0.00 | 0.00 | 93 | 1015.4 |
| 20260904083355 | 78 | 247 | 0.0 | 0.0 | 0.00 | 0.00 | 0.00 | 93 | 1015.5 |
| 20260904082851 | 78 | 213 | 0.0 | 0.0 | 0.00 | 0.00 | 0.00 | 93 | 1015.4 |
| 20260904082345 | 78 | 203 | 0.0 | 0.0 | 0.00 | 0.00 | 0.00 | 93 | 1015.7 |
| 20260904081841 | 78 | 216 | 0.0 | 0.0 | 0.00 | 0.00 | 0.00 | 93 | 1015.5 |
| 20260904081336 | 78 | 196 | 0.0 | 0.0 | 0.00 | 0.00 | 0.00 | 93 | 1015.4 |
| 20260904080832 | 78 | 124 | 0.0 | 0.0 | 0.00 | 0.00 | 0.00 | 93 | 1015.3 |
| 20260904080327 | 78 | 201 | 0.0 | 0.0 | 0.00 | 0.00 | 0.00 | 93 | 1015.4 |
| 20260904075824 | 78 | 196 | 0.0 | 0.0 | 0.00 | 0.00 | 0.00 | 93 | 1015.6 |
| 20260904075324 | 78 | 202 | 0.0 | 0.0 | 0.00 | 0.00 | 0.00 | 93 | 1015.6 |
| 20260904074822 | 78 | 203 | 0.0 | 0.0 | 0.00 | 0.00 | 0.00 | 93 | 1015.6 |
| 20260904074317 | 78 | 204 | 0.0 | 0.0 | 0.00 | 0.00 | 0.00 | 93 | 1015.8 |
| 20260904073813 | 78 | 216 | 0.0 | 0.0 | 0.00 | 0.00 | 0.00 | 92 | 1015.4 |
| 20260904073308 | 78 | 216 | 0.0 | 0.0 | 0.00 | 0.00 | 0.00 | 92 | 1015.6 |
| 20260904072805 | 78 | 216 | 0.0 | 0.0 | 0.00 | 0.00 | 0.00 | 92 | 1015.6 |
| 20260904072306 | 79 | 216 | 0.0 | 0.0 | 0.00 | 0.00 | 0.00 | 92 | 1015.9 |
| 20260904071759 | 79 | 217 | 0.0 | 0.0 | 0.00 | 0.00 | 0.00 | 92 | 1015.6 |
| 20260904071254 | 79 | 216 | 0.0 | 0.0 | 0.00 | 0.00 | 0.00 | 92 | 1015.5 |
| 20260904070749 | 79 | 216 | 0.0 | 0.0 | 0.00 | 0.00 | 0.00 | 92 | 1015.6 |
| 20260904070248 | 79 | 216 | 0.0 | 0.0 | 0.00 | 0.00 | 0.00 | 92 | 1015.7 |
| 20260904065743 | 79 | 217 | 0.0 | 0.0 | 0.00 | 0.00 | 0.00 | 92 | 1015.7 |
| 20260904065240 | 79 | 216 | 0.0 | 0.0 | 0.00 | 0.00 | 0.00 | 92 | 1015.7 |
| 20260904064739 | 79 | 208 | 0.0 | 0.0 | 0.00 | 0.00 | 0.00 | 92 | 1015.8 |
| 20260904064235 | 79 | 203 | 0.0 | 0.0 | 0.00 | 0.00 | 0.00 | 92 | 1015.9 |
| 20260904063731 | 79 | 176 | 0.0 | 0.0 | 0.00 | 0.00 | 0.00 | 92 | 1015.8 |
| 20260904063227 | 79 | 186 | 0.0 | 0.0 | 0.00 | 0.00 | 0.00 | 92 | 1015.9 |
| 20260904062723 | 79 | 207 | 0.0 | 0.0 | 0.00 | 0.00 | 0.00 | 92 | 1016.0 |
| 20260904062218 | 79 | 197 | 0.0 | 0.0 | 0.00 | 0.00 | 0.00 | 92 | 1015.9 |
| 20260904061714 | 80 | 199 | 0.0 | 0.0 | 0.00 | 0.00 | 0.00 | 92 | 1016.1 |
| 20260904061210 | 80 | 201 | 0.0 | 0.0 | 0.00 | 0.00 | 0.00 | 92 | 1016.2 |
| 20260904060706 | 80 | 201 | 0.0 | 0.0 | 0.00 | 0.00 | 0.00 | 92 | 1016.3 |
| 20260904060201 | 80 | 197 | 0.0 | 0.0 | 0.00 | 0.00 | 0.00 | 92 | 1016.4 |
| 20260904055656 | 80 | 195 | 0.0 | 0.0 | 0.00 | 0.00 | 0.00 | 92 | 1016.5 |
| 20260904055152 | 80 | 198 | 0.0 | 1.0 | 0.00 | 0.00 | 0.00 | 92 | 1016.6 |
| 20260904054647 | 80 | 203 | 0.0 | 0.0 | 0.00 | 0.00 | 0.00 | 92 | 1016.7 |
| 20260904054144 | 80 | 198 | 0.0 | 0.0 | 0.00 | 0.00 | 0.00 | 92 | 1016.7 |
| 20260904053644 | 80 | 190 | 0.0 | 0.0 | 0.00 | 0.00 | 0.00 | 92 | 1016.7 |
| 20260904053138 | 80 | 201 | 0.0 | 1.0 | 0.00 | 0.00 | 0.00 | 92 | 1016.8 |
| 20260904052635 | 80 | 179 | 0.0 | 0.0 | 0.00 | 0.00 | 0.00 | 92 | 1016.9 |
| 20260904052130 | 80 | 195 | 0.0 | 1.0 | 0.00 | 0.00 | 0.00 | 91 | 1016.8 |
| 20260904051627 | 80 | 181 | 0.0 | 0.0 | 0.00 | 0.00 | 0.00 | 91 | 1016.7 |
| 20260904051126 | 80 | 197 | 0.0 | 0.0 | 0.00 | 0.00 | 0.00 | 91 | 1016.9 |
| 20260904050616 | 80 | 201 | 0.0 | 2.0 | 0.00 | 0.00 | 0.00 | 91 | 1016.9 |
| 20260904050113 | 80 | 199 | 0.0 | 0.0 | 0.00 | 0.00 | 0.00 | 91 | 1016.9 |
| 20260904045607 | 80 | 169 | 0.0 | 1.0 | 0.00 | 0.00 | 0.00 | 91 | 1017.0 |
| 20260904045101 | 80 | 194 | 0.0 | 1.0 | 0.00 | 0.00 | 0.00 | 91 | 1016.9 |
| 20260904044557 | 80 | 193 | 0.0 | 1.0 | 0.00 | 0.00 | 0.00 | 91 | 1017.1 |
| 20260904044054 | 80 | 195 | 0.0 | 0.0 | 0.00 | 0.00 | 0.00 | 91 | 1017.0 |
| 20260904043550 | 80 | 183 | 0.0 | 1.0 | 0.00 | 0.00 | 0.00 | 91 | 1017.2 |
| 20260904043046 | 80 | 186 | 0.0 | 2.0 | 0.00 | 0.00 | 0.00 | 91 | 1016.9 |
| 20260904042542 | 80 | 188 | 0.0 | 1.0 | 0.00 | 0.00 | 0.00 | 91 | 1016.9 |
| 20260904042037 | 80 | 177 | 0.0 | 2.0 | 0.00 | 0.00 | 0.00 | 91 | 1017.0 |
| 20260904041532 | 80 | 164 | 2.0 | 2.0 | 0.00 | 0.00 | 0.00 | 91 | 1016.8 |
| 20260904041028 | 80 | 173 | 0.0 | 1.0 | 0.00 | 0.00 | 0.00 | 91 | 1016.9 |
| 20260904040528 | 80 | 158 | 0.0 | 2.0 | 0.00 | 0.00 | 0.00 | 91 | 1017.0 |
| 20260904040026 | 80 | 207 | 0.0 | 3.0 | 0.00 | 0.00 | 0.00 | 91 | 1017.2 |
| 20260904035525 | 80 | 143 | 0.0 | 3.0 | 0.00 | 0.00 | 0.00 | 91 | 1017.0 |
| 20260904035025 | 80 | 184 | 1.0 | 3.0 | 0.00 | 0.00 | 0.00 | 91 | 1017.1 |
| 20260904034520 | 80 | 169 | 0.0 | 0.0 | 0.00 | 0.00 | 0.00 | 91 | 1017.1 |
| 20260904034015 | 80 | 187 | 0.0 | 1.0 | 0.00 | 0.00 | 0.00 | 91 | 1017.2 |
| 20260904033511 | 80 | 201 | 0.0 | 0.0 | 0.00 | 0.00 | 0.00 | 90 | 1017.3 |
| 20260904033008 | 80 | 197 | 0.0 | 0.0 | 0.00 | 0.00 | 0.00 | 90 | 1017.2 |
| 20260904032503 | 80 | 269 | 0.0 | 0.0 | 0.00 | 0.00 | 0.00 | 90 | 1017.5 |
| 20260904032002 | 80 | 203 | 0.0 | 0.0 | 0.00 | 0.00 | 0.00 | 90 | 1017.4 |
| 20260904031457 | 80 | 199 | 0.0 | 0.0 | 0.00 | 0.00 | 0.00 | 90 | 1017.3 |
| 20260904030953 | 80 | 196 | 0.0 | 0.0 | 0.00 | 0.00 | 0.00 | 90 | 1017.5 |
| 20260904030448 | 80 | 201 | 0.0 | 1.0 | 0.00 | 0.00 | 0.00 | 90 | 1017.4 |
| 20260904025937 | 80 | 182 | 1.0 | 2.0 | 0.00 | 0.00 | 0.00 | 90 | 1017.5 |
| 20260904025434 | 80 | 182 | 0.0 | 0.0 | 0.00 | 0.00 | 0.00 | 90 | 1017.6 |
| 20260904024934 | 80 | 174 | 0.0 | 0.0 | 0.00 | 0.00 | 0.00 | 90 | 1017.4 |
| 20260904024429 | 80 | 204 | 0.0 | 0.0 | 0.00 | 0.00 | 0.00 | 89 | 1017.5 |
| 20260904023925 | 80 | 206 | 0.0 | 0.0 | 0.00 | 0.00 | 0.00 | 89 | 1017.6 |
| 20260904023421 | 80 | 208 | 0.0 | 0.0 | 0.00 | 0.00 | 0.00 | 89 | 1017.8 |
| 20260904022920 | 80 | 131 | 0.0 | 0.0 | 0.00 | 0.00 | 0.00 | 89 | 1017.5 |
| 20260904022417 | 80 | 177 | 0.0 | 1.0 | 0.00 | 0.00 | 0.00 | 89 | 1017.4 |
| 20260904021913 | 80 | 152 | 0.0 | 0.0 | 0.00 | 0.00 | 0.00 | 89 | 1017.4 |
| 20260904021409 | 80 | 179 | 0.0 | 0.0 | 0.00 | 0.00 | 0.00 | 89 | 1017.6 |